User: anonymous   Login
Location: Mount Kobau Star Party
(49.1167°N, 119.7333°W)
Time: 20:14:55
(UTC-07:00)
Language:

TSX-5 - Orbit

View from above orbital plane
View from above orbital plane
View from above satellite
View from above satellite

Ground track
Ground track

The orbit data is extracted from the following two-line orbital elements,

1 26374U 00030A   16238.87682927  .00000834  00000-0  79136-4 0  9999
2 26374  68.9313 115.5023 0657391 249.7446 103.1848 14.03664355814643
Epoch (UTC): 25 August 2016 21:02:38
Eccentricity: 0.0657391
inclination: 68.9313°
perigee height: 404 km
apogee height: 1358 km
right ascension of ascending node: 115.5023°
argument of perigee: 249.7446°
revolutions per day: 14.03664355
mean anomaly at epoch: 103.1848°
orbit number at epoch: 81464

The dashed part of the orbit path shows where the satellite is in the earth's shadow,  

DLR